STARLINK-32034, 60297

Orbit data source: Space-Track

STARLINK-32034, 60297 is a payload satellite owned by SpaceX/Seattle (US) in LEO that was launched on Sun, 28 Jul 2024 UTC via an FALCON 9 launch vehicle from the Air Force Eastern Test Range (AFETR). Payload-class satellites include a variety of spacecraft equipped with specific instruments for various scientific and technological missions. These include communications satellites like Starlink; space stations such as the ISS; scientific satellites like the Hubble; Earth observation satellites from companies like Planet Labs, Umbra, and HawkEye 360; GPS; miniature CubeSats for education and research; and military/defense satellites.

Loading next visibility...
Identifier
60297, 2024-132V
Orbit
LEO
Last TLE update
10 hours ago
Origin
Manufacturer
SpaceX/Seattle
Mission
Operational spacecraft
Bus & Motor
STARLINK V2M, Unknown motor
Mass
730 kg wet, ~700 kg dry
Launch date (UTC)
2024-07-28 (1 year ago)
Launch vehicle
FALCON 9
Launch site
Air Force Eastern Test Range (AFETR)
Object type
Payload
Rocket body
Debris
Shape & HBR
Unknown
Radar Cross Section
Large (>1 m²)

Expand to show TLE details & history

TLE from 10 hours ago
0 STARLINK-32034
1 60297U 24132V   25194.07872299 -.00000407  00000-0 -16287-5 0  9993
2 60297  53.1591  85.4876 0001291  92.9281 267.1868 15.30191634 54866
Epoch: 2025-07-13T01:53Z
TLE epoch observation values (Epoch: 2025-07-13T01:53:21.666Z)
Latitude
0.00002°
Longitude
125.94024°
Altitude
476.183 km
Speed
7.629 km/s
True Right ascension
05h 41m 57s
True Declination
0° 00' 00"
Sunlit
Object was in daylight at epoch
Visualization orbit readout
Latitude
35.36128°
Longitude
156.00052°
Altitude
477.297 km
Speed
7.632 km/s
Apparent Right ascension
09h 39m 31s
Apparent Declination
0° 47' 41"
Sunlit
Object is in daylight
Visualization observer readout
Local Sidereal Time
23:55:38
Azimuth
47.041° ENE
Elevation
-40.125°
Doppler factor
1
Orbital elements
Apogee altitude
476.381 km
Perigee altitude
474.612 km
Semi-major axis
6,853.634 km
Eccentricity
0.00013
Inclination
53.1591°
RAAN
85.4876°
Arg. of periapsis
92.9281°
True anomaly
Unknown
Mean anomaly
267.1868°
Eccentric anomaly
Unknown
Mean motion
3.82527 °/min
Orbital period
94.11 mins
BSTAR
-0.0000016287
Loading maneuver chart data...
Loading SW <> Apogee altitude chart data...
Loading historical data...
Loading historical data...
Loading historical data...
Loading historical data...
Loading historical data...
Loading historical data...
Loading historical data...

STARLINK-32034 Visibility forecast

Observer location: undefined°, undefined°

Span
Click to sort rows by Start time (UTC) header in descending order
Start Az.
Max El. time (UTC)
Max El. Az.
Max El.
End time (UTC)
End Az.
7 mins2025-07-13 19:17:42.560Z218.814° SW2025-07-13 19:21:42.560Z95.731° ESE40.402°2025-07-13 19:24:42.560Z55.64° ENE
4 mins2025-07-13 20:57:42.560Z297.185° NW2025-07-13 20:59:42.560Z340.841° N20.031°2025-07-13 21:01:42.560Z19.54° NNE
4 mins2025-07-14 00:15:42.560Z342.825° N2025-07-14 00:17:42.560Z16.693° NNE14.286°2025-07-14 00:19:42.560Z50.918° ENE
5 mins2025-07-14 01:54:42.560Z331.116° NNW2025-07-14 01:56:42.560Z64.802° ENE37.953°2025-07-14 01:59:42.560Z114.828° SE
|